Simultaneous Nadir Overpasses (SNOs) Predictions

Prediction of SNOs between LANDSAT-8 and METOP-B Satellite Orbit:

Table of predicted SNOs for the next 14.0 days since TLE Epoch: 2/9/2019
Index Date (LANDSAT-8) Time (LANDSAT-8) Lat,Lon (LANDSAT-8) SZA (LANDSAT-8 ) Date (METOP-B) Time (METOP-B) Lat,Lon (METOP-B) SZA (METOP-B ) Distance(km) Time Diff (sec)
1 02/11/2019 00:30:57 -81.10, 31.58 83.14 02/11/2019 00:30:42 -81.10, 31.56 83.15 0.35 15
2 02/11/2019 01:20:22 81.13,-160.35 96.92 02/11/2019 01:21:20 81.13,-160.21 96.95 2.41 58
3 02/13/2019 20:05:11 -81.11, 98.14 84.05 02/13/2019 20:05:05 -81.10, 98.08 84.06 1.32 6
4 02/13/2019 20:54:37 81.11, -94.18 95.95 02/13/2019 20:55:44 81.12, -94.09 95.99 1.77 67
5 02/16/2019 14:50:01 81.07, -3.64 94.93 02/16/2019 14:48:50 81.07, -3.62 94.91 0.61 71
6 02/16/2019 15:39:27 -81.09, 164.37 85.04 02/16/2019 15:39:30 -81.09, 164.20 85.05 2.88 3
7 02/19/2019 10:24:16 81.08, 62.96 93.97 02/19/2019 10:23:14 81.08, 62.86 93.93 1.73 62
8 02/19/2019 11:13:42 -81.11,-129.01 85.99 02/19/2019 11:13:53 -81.11,-128.94 85.98 1.34 11
9 02/22/2019 05:58:30 81.09, 129.59 92.99 02/22/2019 05:57:36 81.09, 129.71 92.98 2.06 54




NCC Satellite Simultaneous Nadir Overpasses (SNOs) Prediction Service
